SCP
0 0 0 0 0 0 0 0 0 0 0 0 0 0 0 0 0 0 0 0 0 0 0 0 0 0 0 0 1 1 1 1 0 0 0 0 0 0 0 0 0 0 0
0 0 0 0 0 0 0 0 0 0 0 0 0 0 0 0 0 0 0 0 0 0 0 0 0 0 0 0 1 1 1 1 0 0 0 0 0 0 0 0 0 0 0
0 0 0 0 0 0 0 0 0 0 0 0 0 0 0 0 0 0 0 0 0 0 0 0 0 0 0 0 1 1 1 0 0 0 0 0 0 0 0 0 0 0 0
0 0 0 0 0 0 0 0 0 0 0 0 0 0 0 0 0 0 0 0 0 0 0 0 0 0 0 0 0 1 1 0 0 0 0 0 0 0 0 0 0 0 0
0 0 0 0 0 0 0 0 0 0 0 0 0 0 0 0 0 0 0 0 0 0 0 0 0 0 0 0 0 1 1 0 0 0 0 0 0 0 0 0 0 0 0
0 0 0 0 0 0 0 0 0 0 0 0 0 0 0 0 0 0 0 0 0 0 0 0 0 0 0 0 0 0 1 0 0 0 0 0 0 0 0 0 0 0 0
0 0 0 0 0 0 0 0 0 0 0 0 0 0 0 0 0 0 0 0 0 0 0 0 0 0 0 0 0 0 0 0 0 0 0 0 0 0 0 0 0 0 0
0 0 0 0 0 0 0 0 0 0 0 0 0 0 0 0 0 0 0 0 0 0 0 0 0 0 0 0 0 0 0 0 0 0 0 0 0 0 0 0 0 0 0
0 0 0 0 0 0 0 0 0 0 0 0 0 0 0 0 0 0 0 0 0 0 0 0 0 0 0 0 0 0 0 0 0 0 0 0 0 0 0 0 0 0 0
0 0 0 0 0 0 0 0 0 0 0 0 0 0 0 0 0 0 0 0 0 0 0 0 0 0 0 0 0 0 0 0 0 0 0 0 0 0 0 0 0 0 0
0 0 0 0 0 0 0 0 0 0 0 0 0 0 0 0 0 0 0 0 0 0 0 0 0 0 0 0 0 0 0 0 0 0 0 0 0 0 0 0 0 0 0
0 0 0 0 0 0 0 0 0 0 0 0 0 0 0 0 0 0 0 0 0 0 0 0 0 0 0 0 0 0 0 0 0 0 0 0 0 0 0 0 0 0 0
0 0 0 0 0 0 0 0 0 0 0 0 0 0 0 0 0 0 0 0 0 0 0 0 0 0 0 0 0 0 0 0 0 0 0 0 0 0 0 0 0 0 0
0 0 0 0 0 0 0 0 0 0 0 0 0 0 0 0 0 0 0 0 0 0 0 0 0 0 0 0 0 0 0 0 0 0 0 0 0 0 0 0 0 0 0
0 0 0 0 0 0 0 0 0 0 0 0 0 0 0 0 0 0 0 0 0 0 0 0 0 0 0 0 0 0 0 0 0 0 0 0 0 0 0 0 0 0 0
0 0 0 0 0 0 0 0 0 0 0 0 0 0 0 0 0 0 0 0 0 0 0 0 0 0 0 0 0 0 0 0 0 0 0 0 0 0 0 0 0 0 0
0 0 0 0 0 0 0 0 0 0 0 0 0 0 0 0 0 0 0 0 0 0 0 0 0 0 0 0 0 0 0 0 0 0 0 0 0 0 0 0 0 0 0
0 0 0 0 0 0 0 0 0 0 0 0 0 0 0 0 0 0 0 0 0 0 0 0 0 0 0 0 0 0 0 0 0 0 0 0 0 0 0 0 0 0 0
0 0 0 0 0 0 0 0 0 0 0 0 0 0 0 0 0 0 0 0 0 0 0 0 0 0 0 0 0 0 0 0 0 0 0 0 0 0 0 0 0 0 0
0 0 0 0 0 0 0 0 0 0 0 0 0 0 0 0 0 0 0 0 0 0 0 0 0 0 0 0 0 0 0 0 0 0 0 0 0 0 0 0 0 0 0
0 0 0 0 0 0 0 0 0 0 0 0 0 0 0 0 0 0 0 0 0 0 0 0 0 0 0 0 0 0 0 0 0 0 0 0 0 0 0 0 0 0 0
0 0 0 0 0 0 0 0 0 0 0 0 0 0 0 0 0 0 0 0 0 0 0 0 0 0 0 0 0 0 0 0 0 0 0 0 0 0 0 0 0 0 0
0 0 0 0 0 0 0 0 0 0 0 0 0 0 0 0 0 0 0 0 0 0 0 0 0 0 0 0 0 0 0 0 0 0 0 0 0 0 0 0 0 0 0
0 0 0 0 0 0 0 0 0 0 0 0 0 0 0 0 0 0 0 0 0 0 0 0 0 0 0 0 0 0 0 0 0 0 0 0 0 0 0 0 0 0 0
0 0 0 0 0 0 0 0 0 0 0 0 0 0 0 0 0 0 0 0 0 0 0 0 0 0 0 0 0 0 0 0 0 0 0 0 0 0 0 0 0 0 0
0 0 0 0 0 0 0 0 0 0 0 0 0 0 0 0 0 0 0 0 0 0 0 0 0 0 0 0 0 0 0 0 0 0 0 0 0 0 0 0 0 0 0
Wind_Speed
2 2 1 1 2 3 3 3 3 3 4 5 5 6 6 6 6 7 8 8 9 11 13 13 14 14 15 15 14 14 14 14 14 13 13 13 13 12 11 10 9 7 10
1 1 0 2 2 3 4 4 4 5 5 5 6 6 6 6 6 7 8 9 9 10 11 13 13 14 14 14 13 13 13 14 13 13 13 12 12 11 11 10 9 6 9
1 1 1 3 3 3 4 5 6 5 6 6 6 6 7 7 7 7 8 9 9 10 11 13 13 14 13 13 12 12 13 13 13 12 11 7 8 11 10 10 9 8 8
1 2 1 4 4 4 5 6 6 6 6 6 7 7 7 7 7 7 8 8 9 10 11 13 13 13 13 12 12 12 12 12 12 11 6 5 5 9 9 9 9 8 8
2 2 1 4 5 5 5 5 6 6 6 7 7 7 7 7 6 6 7 8 9 10 10 12 13 12 12 12 11 11 12 12 11 8 5 4 4 8 9 9 8 8 8
2 2 1 4 4 5 5 5 6 6 7 7 7 7 7 7 6 5 6 8 9 9 9 10 11 12 11 11 11 11 11 11 9 6 5 4 3 7 8 8 8 8 7
2 2 2 4 4 4 5 5 5 6 6 6 7 7 7 6 6 5 6 8 9 9 9 10 11 11 11 11 11 11 11 10 6 6 5 4 4 6 7 7 7 7 7
2 3 3 3 3 4 4 5 5 6 6 7 7 7 7 6 6 6 7 9 9 10 10 10 11 10 10 9 9 10 11 9 7 6 5 4 6 6 6 6 7 6 7
3 3 3 3 3 3 4 4 5 6 6 7 7 6 6 6 7 8 9 9 10 10 10 10 10 10 9 9 10 10 10 9 6 4 5 3 6 6 6 6 6 6 6
4 4 4 4 4 3 2 3 4 6 6 7 7 6 6 6 7 9 9 10 10 10 10 10 10 9 9 9 9 9 9 7 5 4 3 4 7 6 6 6 6 6 6
3 3 3 4 4 3 3 3 3 5 6 6 5 6 5 4 4 5 8 10 10 10 10 10 10 9 8 8 8 8 6 3 4 3 3 5 6 6 6 6 6 6 6
1 2 2 3 3 3 2 3 3 3 3 4 4 4 4 4 4 5 7 8 9 9 9 9 8 7 5 4 5 5 3 4 3 3 3 6 6 6 6 6 5 6 6
0 1 2 2 2 2 2 2 2 2 3 3 4 4 3 4 3 4 3 4 5 6 5 5 5 4 4 3 3 3 3 2 2 2 3 6 6 6 6 6 6 5 5
1 1 2 2 2 2 2 2 2 2 2 2 3 4 3 3 3 3 3 3 3 3 3 3 3 4 4 3 3 3 3 2 2 1 2 5 5 5 5 5 6 5 5
1 0 1 1 2 2 2 2 3 2 2 2 3 3 3 2 3 3 3 3 3 3 3 3 3 3 3 3 3 3 2 2 2 2 1 4 4 5 5 5 5 6 6
2 1 1 2 1 2 2 2 2 2 2 2 2 2 3 2 2 2 3 2 2 2 2 2 2 2 2 2 2 2 2 2 2 2 1 1 3 4 4 5 5 6 6
2 2 2 2 2 2 2 2 2 2 2 2 2 2 2 2 2 2 2 2 2 2 3 2 3 2 2 2 2 2 2 1 2 1 1 0 1 2 3 4 4 5 5
2 2 2 3 3 2 2 2 2 2 2 2 2 2 2 2 2 2 2 2 2 2 2 2 2 2 2 2 1 1 1 1 1 1 1 1 1 1 2 4 4 4 4
3 2 2 2 3 2 2 2 2 3 3 2 2 2 2 2 2 3 2 2 2 2 2 2 2 2 2 2 1 1 1 1 0 1 1 2 2 1 1 2 4 5 6
2 2 2 2 2 3 2 2 3 3 2 2 2 2 2 2 3 3 2 2 2 2 2 2 2 2 2 1 1 2 1 1 0 0 1 1 1 2 2 2 2 3 5
2 2 2 2 2 2 2 2 2 1 1 1 2 2 2 2 2 2 2 2 2 2 2 2 2 2 1 1 2 2 2 1 1 0 1 1 1 2 1 2 2 2 2
3 2 2 2 2 2 1 1 1 1 1 1 1 2 2 2 2 2 2 2 2 2 2 2 2 1 1 1 1 1 2 3 2 1 0 1 1 1 1 2 2 2 2
3 2 2 2 2 2 2 2 2 2 2 2 2 2 2 2 1 2 2 2 1 2 1 1 1 2 1 0 1 2 1 1 2 2 1 1 1 1 1 1 1 2 2
3 2 2 2 2 2 3 3 3 2 1 0 0 1 2 2 1 1 1 1 1 1 1 1 1 1 1 1 0 0 1 2 1 1 2 1 2 2 2 2 2 2 2
3 3 2 2 2 2 2 3 3 2 1 1 1 2 2 2 2 2 1 1 1 1 1 1 1 1 1 1 1 1 1 1 1 1 1 2 2 2 1 2 2 2 1
3 3 3 3 1 2 2 2 3 3 2 2 1 1 1 1 2 2 1 1 1 0 0 1 1 1 1 1 1 1 1 1 2 2 1 1 2 2 2 1 1 1 1
Wind_Direction
304 295 288 71 96 89 88 89 91 123 139 140 138 134 135 135 133 141 151 152 150 152 155 157 155 153 152 152 153 153 152 149 147 148 149 148 147 147 145 143 141 138 140
280 300 162 90 90 82 77 80 77 89 111 126 129 132 131 131 128 130 138 141 142 144 148 150 149 149 151 152 153 154 154 150 148 149 148 149 148 149 147 145 144 141 144
21 343 36 84 76 74 75 73 77 82 95 110 119 126 126 126 121 118 124 132 138 143 145 148 147 150 151 150 149 151 151 149 148 148 144 141 149 150 149 150 150 148 148
49 12 58 82 68 72 70 69 71 73 87 103 111 118 120 121 121 123 124 127 136 142 143 147 149 150 149 147 146 147 149 149 147 140 130 130 143 150 153 153 154 152 151
44 17 41 79 71 69 69 69 68 70 86 102 106 114 117 116 117 121 125 127 131 136 140 145 147 147 145 144 141 143 146 144 139 132 121 123 131 154 156 155 155 154 154
35 16 38 77 71 66 65 67 69 73 84 95 103 107 111 111 112 116 128 130 129 131 135 142 145 143 140 140 138 137 138 137 131 123 124 133 142 160 160 159 160 160 159
33 9 21 69 61 59 61 66 70 75 83 91 95 98 100 102 101 101 125 132 130 128 126 130 132 135 134 134 135 136 134 135 128 127 130 138 152 160 163 161 158 159 158
47 16 7 47 53 50 54 63 73 76 83 87 91 93 94 93 88 84 109 127 132 131 127 124 122 124 124 127 132 135 136 137 134 138 138 147 161 166 163 157 154 155 156
41 24 6 6 17 43 58 68 79 82 81 82 83 86 89 89 84 81 94 111 124 126 124 123 123 120 118 120 125 128 134 133 128 131 147 151 164 167 163 159 157 155 154
35 17 7 8 14 17 29 57 74 80 77 76 78 75 79 86 87 82 84 100 111 115 118 121 118 115 110 111 115 121 131 126 125 129 137 153 159 161 163 164 165 165 161
33 6 4 8 14 20 30 45 58 68 66 65 63 63 61 49 59 75 85 94 100 106 110 112 113 112 108 108 114 117 112 111 124 126 135 156 160 162 166 168 172 172 170
18 348 359 9 15 22 40 44 44 52 50 49 47 47 43 46 53 66 75 86 92 97 102 105 106 101 90 89 102 103 99 118 128 135 145 157 163 170 175 177 179 177 178
184 5 0 18 32 39 40 46 41 47 47 45 49 51 54 52 51 52 53 55 61 72 75 82 81 76 78 84 89 96 115 127 134 142 157 168 174 184 188 189 186 185 183
98 16 7 32 45 43 48 45 44 47 49 44 45 51 57 57 56 56 56 53 54 62 68 65 68 65 73 78 88 99 104 119 127 131 169 181 185 189 190 190 187 183 181
136 129 53 58 60 59 60 45 51 45 50 53 46 48 61 67 64 64 65 63 62 70 79 80 74 64 65 69 82 97 102 111 129 132 153 180 183 188 192 196 194 195 196
173 172 131 102 85 82 75 60 48 42 47 55 50 47 58 72 76 78 75 70 69 73 81 87 89 78 63 68 73 82 95 114 121 132 146 184 182 188 202 209 212 214 215
174 163 144 140 102 95 78 65 61 49 58 56 48 48 57 74 87 90 85 82 82 85 91 93 88 85 88 80 75 74 87 112 135 148 156 158 207 205 207 211 220 229 233
149 149 152 138 117 108 92 74 63 57 62 53 47 46 49 66 88 91 87 83 88 85 88 95 90 86 79 76 61 48 73 99 150 165 168 180 203 227 234 235 238 246 254
154 146 137 122 122 120 102 83 69 64 59 47 49 51 51 60 78 88 84 73 81 84 83 98 85 97 94 80 73 49 47 56 136 197 197 209 213 222 242 260 254 255 260
131 123 120 111 105 102 87 74 63 57 47 47 49 47 54 58 68 81 79 64 72 80 72 81 87 76 88 96 82 47 23 16 49 210 229 226 221 225 229 246 258 265 265
107 108 120 112 99 94 86 89 78 59 32 31 40 47 46 55 69 81 79 68 71 82 90 100 101 90 79 95 83 42 17 29 48 280 230 231 241 241 237 243 255 255 268
133 125 125 122 117 119 118 120 122 108 75 53 31 39 36 49 66 88 90 86 84 89 83 85 110 113 88 81 108 84 14 356 356 6 335 243 263 259 252 248 244 244 256
137 149 166 153 138 127 109 92 78 60 42 33 26 21 13 34 61 78 92 94 91 103 112 118 137 145 163 48 103 141 143 236 320 341 1 2 339 308 287 288 267 254 252
157 147 146 150 136 125 119 114 116 113 107 289 337 359 5 28 47 67 84 98 108 114 131 173 136 150 153 198 154 132 180 173 173 317 337 354 350 340 321 307 303 289 272
151 143 141 139 134 130 130 134 126 115 130 78 50 38 16 11 24 41 67 91 104 112 142 135 118 139 154 172 186 173 148 122 159 177 289 332 349 339 326 310 306 305 297
146 140 140 138 139 133 134 140 144 148 148 119 78 45 10 6 8 15 39 48 88 124 173 167 149 156 158 158 175 171 169 171 174 168 204 282 317 319 327 334 331 322 315